Regional Weather Roundup
Issued by NWS Raleigh/Durham, NC

Home | Current Version | Previous Version | Text Only | Print | Product List | Glossary On
Versions: 1 2 3 4 5 6 7 8 9 10 11 12 13 14 15 16 17 18 19 20 21 22 23 24 25 26 27 28 29 30 31 32 33 34 35 36 37 38 39 40 41 42 43 44 45 46 47 48 49 50
000
ASUS42 KRAH 301510
RWRRAH
NORTH CAROLINA WEATHER ROUNDUP
NATIONAL WEATHER SERVICE RALEIGH NC
1100 AM EDT TUE SEP 30 2014

NOTE: "FAIR" INDICATES FEW OR NO CLOUDS BELOW 12,000 FEET WITH NO
SIGNIFICANT WEATHER AND/OR OBSTRUCTIONS TO VISIBILITY.

NCZ001-053-055-056-065-067-301600-
WESTERN NORTH CAROLINA

CITY           SKY/WX    TMP DP  RH WIND       PRES   REMARKS
ASHEVILLE      SUNNY     67  59  75 VRB6      30.03S
JEFFERSON      SUNNY     67  52  60 NW8       30.03F
MORGANTON      MOSUNNY   66  63  90 CALM      30.02S
HICKORY        SUNNY     68  62  81 N6        29.97F
RUTHERFORDTON  SUNNY     73  61  66 N6        29.98S
MOUNT AIRY     SUNNY     74  64  72 CALM      29.97F
BOONE          SUNNY     65  55  70 W10       30.04F
$$

NCZ021-022-025-041-071-084-088-301600-
CENTRAL NORTH CAROLINA

CITY           SKY/WX    TMP DP  RH WIND       PRES   REMARKS
CHARLOTTE      MOSUNNY   68  62  81 W3        29.96F
GREENSBORO     CLOUDY    64  63  96 CALM      29.95S FOG
WINSTON-SALEM  MOSUNNY   67  61  81 CALM      29.97S
RALEIGH-DURHAM CLOUDY    66  61  84 CALM      29.95S HAZE
FORT BRAGG     CLOUDY    66  62  88 N3        29.93F
FAYETTEVILLE   MOSUNNY   69  64  84 N7        29.93S
BURLINGTON     CLOUDY    67  61  81 CALM      29.95S
LAURINBURG     SUNNY     73  62  68 N3        29.94S
$$

NCZ011-015-027-028-043-044-047-080-103-301600-
NORTHEASTERN NORTH CAROLINA

CITY           SKY/WX    TMP DP  RH WIND       PRES   REMARKS
ROCKY MT-WILSO CLOUDY    65  64  97 CALM      29.94S
GREENVILLE     SUNNY     72  63  73 N3        29.94F
WASHINGTON     SUNNY     72  63  73 N3        29.92F
ELIZABETH CITY SUNNY     74  65  73 NE6       29.92S
MANTEO         MOSUNNY   73  62  68 NE10      29.91S
CAPE HATTERAS  CLOUDY    71  65  81 NE8G16    29.88S
$$

NCZ078-087-090-091-093-098-101-301600-
SOUTHEASTERN NORTH CAROLINA

CITY           SKY/WX    TMP DP  RH WIND       PRES   REMARKS
LUMBERTON      SUNNY     74  64  71 MISG      29.92F
GOLDSBORO      MOSUNNY   72  66  81 CALM      29.91S
KINSTON        MOSUNNY   73  63  68 N6        29.93F
KENANSVILLE    SUNNY     73  61  66 N5        29.93F
NEW BERN       MOSUNNY   74  65  73 N6        29.92F
CHERRY POINT   MOSUNNY   74  64  71 NE10      29.91F
BEAUFORT       MOSUNNY   75  64  68 N13       29.89F
JACKSONVILLE   SUNNY     74  64  71 NE8       29.90F
WILMINGTON     SUNNY     74  64  71 N10       29.90F
$$




USA.gov is the U.S. government's official web portal to all federal, state and local government web resources and services.